This is the latest recevied weather packets stored in our database for station/object KO5MO-10. If no packets are shown the sender has not sent any weather packets the latest 1 day(s).
| Time | Temp. | Humidity | Pressure | Rain* | Wind** | Luminosity | Snow |
|---|---|---|---|---|---|---|---|
| 1778043415 | 19.44° C | 31% | 1008.8 hPa | - | - | - | - |
| 1778042515 | 19.44° C | 31% | 1008.6 hPa | - | - | - | - |
| 1778041615 | 20° C | 30% | 1008.5 hPa | - | - | - | - |
| 1778040715 | 20° C | 30% | 1008.3 hPa | - | - | - | - |
| 1778038914 | 20.56° C | 28% | 1008 hPa | - | - | - | - |
| 1778038014 | 20.56° C | 27% | 1007.8 hPa | - | - | - | - |
| 1778037114 | 21.11° C | 27% | 1007.6 hPa | - | - | - | - |
| 1778036214 | 21.11° C | 27% | 1007.5 hPa | - | - | - | - |
| 1778035314 | 21.67° C | 26% | 1007.3 hPa | - | - | - | - |
| 1778034413 | 21.67° C | 26% | 1007.1 hPa | - | - | - | - |
| 1778033513 | 22.22° C | 25% | 1006.9 hPa | - | - | - | - |
| 1778032613 | 22.78° C | 24% | 1006.6 hPa | - | - | - | - |
| 1778031713 | 24.44° C | 23% | 1006.5 hPa | - | - | - | - |
| 1778030813 | 25.56° C | 22% | 1006.4 hPa | - | - | - | - |
| 1778029012 | 26.11° C | 21% | 1006.2 hPa | - | - | - | - |
| 1778028112 | 27.78° C | 21% | 1006 hPa | - | - | - | - |
| 1778027212 | 26.11° C | 21% | 1006 hPa | - | - | - | - |
| 1778026312 | 27.22° C | 21% | 1005.8 hPa | - | - | - | - |
| 1778020910 | 28.33° C | 21% | 1006.1 hPa | - | - | - | - |
| 1778020010 | 27.78° C | 22% | 1006.4 hPa | - | - | - | - |
| 1778015509 | 27.22° C | 23% | 1007 hPa | - | - | - | - |
| 1778011008 | 26.11° C | 25% | 1007.6 hPa | - | - | - | - |
* Rain since midnight (hover to see other rain measurements)
** Current wind speed in m/s (hover to see current wind gust speed)